Location: Grossmotten
(48.5500°N, 15.3833°E)
Time: 15:41:21
(UTC+00:00)

SL-16 R/B - Pass Details

Date: 15 November 2019
Orbit: 842 x 846 km, 71.0° (Epoch: 09 December)

Event Time Altitude Azimuth Distance (km) Brightness Sun altitude
Exits shadow 05:19:04 - 322° (NW) 2,992 4.5 -7.9°
Reaches altitude 10° 05:20:33 10° 316° (NW) 2,478 4.1 -7.7°
Maximum altitude 05:25:34 33° 254° (WSW) 1,385 2.9 -6.9°
Drops below altitude 10° 05:30:34 10° 192° (SSW) 2,462 4.7 -6.2°
Sets 05:33:12 0° 183° (S) 3,392 5.6 -5.8°
